Mount Sterling, KY

4:06 AM EDT on May 30, 2017 (GMT -0400)
Mount Sterling-Montgomery County

Weather History for KIOB - December, 2014

Change the Weather History Date:

Monday, December 1, 2014

  Actual Average Record
Temperature  
Mean Temperature 46 °F -  
Max Temperature 60 °F 50 °F 60 °F (2014)
Min Temperature 33 °F 32 °F 32 °F (2016)
Degree Days  
Heating Degree Days 18    
Moisture  
Dew Point 42 °F    
Average Humidity 90    
Maximum Humidity 100    
Minimum Humidity 68    
Precipitation  
Precipitation 0.52 in - - ()
Sea Level Pressure  
Sea Level Pressure 30.34 in    
Wind  
Wind Speed 12 mph (NNE)    
Max Wind Speed 17 mph    
Max Gust Speed 29 mph    
Visibility 8 miles    
Events Rain    
Averages and records for this station are not official NWS values.
T = Trace of Precipitation, MM = Missing Value Source: NWS Daily Summary

Daily Weather History Graph

Daily Weather History Graph

Search for Another Location

Airport or City:

Trip Planner

Search our weather history database for the weather conditions in past years. The results will help you decide how hot, cold, wet, or windy it might be!

Date:

Astronomy

Dec. 01, 2014 Rise Set
Actual Time 7:33 AM EST 5:16 PM EST
Civil Twilight 7:04 AM EST 5:45 PM EST
Nautical Twilight 6:31 AM EST 6:18 PM EST
Astronomical Twilight 5:59 AM EST 6:49 PM EST
Moon 2:17 PM EST (12/1) 2:13 AM EST (12/1)
Length of Visible Light 10h 41m
Length of Day
9h 43m
Waxing Gibbous, 75% of the Moon is Illuminated
Dec 1
Waxing Gibbous
Dec 6
Full
Dec 14
Last Quarter
Dec 21
New
Dec 28
First Quarter

Hourly Weather History & Observations

Time (EST) Temp. Windchill Dew Point Humidity Pressure Visibility Wind Dir Wind Speed Gust Speed Precip Events Conditions
12:15 AM 60.8 °F - 50.0 °F 68% 30.16 in 10.0 mi SW 13.8 mph 20.7 mph N/A   Mostly Cloudy
12:35 AM 60.8 °F - 50.0 °F 68% 30.16 in 10.0 mi WSW 16.1 mph 28.8 mph N/A   Scattered Clouds
12:55 AM 60.8 °F - 50.0 °F 68% 30.16 in 10.0 mi WSW 15.0 mph 26.5 mph N/A   Clear
1:15 AM 60.8 °F - 50.0 °F 68% 30.16 in 10.0 mi WSW 15.0 mph 21.9 mph N/A   Scattered Clouds
1:35 AM 60.8 °F - 50.0 °F 68% 30.16 in 10.0 mi WSW 15.0 mph 25.3 mph N/A   Overcast
1:55 AM 60.8 °F - 50.0 °F 68% 30.16 in 10.0 mi WSW 17.3 mph 24.2 mph N/A   Mostly Cloudy
2:15 AM 60.8 °F - 51.8 °F 72% 30.17 in 10.0 mi WSW 15.0 mph 23.0 mph N/A   Mostly Cloudy
2:35 AM 60.8 °F - 51.8 °F 72% 30.17 in 10.0 mi SW 15.0 mph 23.0 mph N/A   Mostly Cloudy
2:55 AM 60.8 °F - 51.8 °F 72% 30.17 in 10.0 mi WSW 12.7 mph - N/A   Overcast
3:15 AM 60.8 °F - 51.8 °F 72% 30.18 in 10.0 mi WSW 13.8 mph 18.4 mph N/A   Overcast
3:35 AM 60.8 °F - 51.8 °F 72% 30.18 in 10.0 mi WSW 11.5 mph 18.4 mph N/A   Overcast
3:55 AM 60.8 °F - 51.8 °F 72% 30.18 in 10.0 mi WSW 15.0 mph 20.7 mph N/A   Overcast
4:15 AM 60.8 °F - 51.8 °F 72% 30.18 in 10.0 mi WSW 10.4 mph - N/A   Overcast
4:35 AM 60.8 °F - 51.8 °F 72% 30.19 in 10.0 mi WSW 12.7 mph 18.4 mph N/A   Overcast
4:55 AM 60.8 °F - 51.8 °F 72% 30.19 in 10.0 mi WSW 9.2 mph 16.1 mph N/A   Overcast
5:15 AM 60.8 °F - 51.8 °F 72% 30.20 in 10.0 mi West 10.4 mph - N/A   Overcast
5:35 AM 60.8 °F - 51.8 °F 72% 30.20 in 10.0 mi West 11.5 mph 18.4 mph N/A   Overcast
5:55 AM 60.8 °F - 51.8 °F 72% 30.21 in 10.0 mi WSW 11.5 mph 17.3 mph N/A Rain Light Rain
6:15 AM 60.8 °F - 53.6 °F 77% 30.22 in 10.0 mi West 10.4 mph 18.4 mph N/A   Light Drizzle
6:35 AM 59.0 °F - 53.6 °F 82% 30.23 in 10.0 mi West 10.4 mph - N/A Rain Light Rain
6:55 AM 59.0 °F - 53.6 °F 82% 30.24 in 10.0 mi West 9.2 mph - N/A Rain Rain
7:15 AM 57.2 °F - 53.6 °F 88% 30.25 in 10.0 mi NNW 4.6 mph - N/A Rain Light Rain
7:35 AM 55.4 °F - 55.4 °F 100% 30.26 in 10.0 mi NW 6.9 mph - N/A   Drizzle
7:55 AM 53.6 °F - 51.8 °F 94% 30.27 in 7.0 mi North 5.8 mph - 0.01 in Rain Light Rain
8:15 AM 50.0 °F - 50.0 °F 100% 30.28 in 10.0 mi North 4.6 mph - N/A   Drizzle
8:35 AM 50.0 °F - 50.0 °F 100% 30.29 in 10.0 mi North 5.8 mph - N/A Rain Rain
8:55 AM 50.0 °F - 50.0 °F 100% 30.30 in 10.0 mi North 5.8 mph - 0.01 in   Drizzle
9:15 AM 50.0 °F - 48.2 °F 94% 30.32 in 7.0 mi North 6.9 mph - N/A Rain Light Rain
9:35 AM 46.4 °F 40.7 °F 46.4 °F 100% 30.33 in 7.0 mi North 12.7 mph - 0.01 in Rain Rain
9:55 AM 44.6 °F 39.7 °F 44.6 °F 100% 30.35 in 10.0 mi North 9.2 mph - 0.01 in   Drizzle
10:15 AM 44.6 °F 38.4 °F 42.8 °F 93% 30.36 in 10.0 mi North 12.7 mph 17.3 mph N/A   Overcast
10:35 AM 42.8 °F 37.5 °F 41.0 °F 93% 30.38 in 10.0 mi NNE 9.2 mph 20.7 mph 0.01 in Rain Light Rain
10:55 AM 42.8 °F 36.6 °F 41.0 °F 93% 30.39 in 10.0 mi North 11.5 mph - 0.01 in   Overcast
11:15 AM 41.0 °F 35.2 °F 41.0 °F 100% 30.38 in 10.0 mi NNE 9.2 mph - N/A Rain Light Rain
11:35 AM 41.0 °F 33.9 °F 41.0 °F 100% 30.38 in 5.0 mi NNE 12.7 mph 16.1 mph 0.04 in Rain Light Rain
11:55 AM 41.0 °F 36.4 °F 41.0 °F 100% 30.39 in 7.0 mi North 6.9 mph 16.1 mph 0.04 in   Overcast
12:15 PM 41.0 °F 35.2 °F 39.2 °F 93% 30.39 in 4.0 mi NNE 9.2 mph - 0.01 in Rain Light Rain
12:35 PM 41.0 °F 35.2 °F 41.0 °F 100% 30.38 in 5.0 mi NNE 9.2 mph - 0.03 in Rain Rain
12:55 PM 41.0 °F 35.8 °F 39.2 °F 93% 30.37 in 5.0 mi NE 8.1 mph - 0.03 in Rain Rain
1:15 PM 39.2 °F 34.2 °F 39.2 °F 100% 30.38 in 3.0 mi NNE 6.9 mph - 0.05 in Rain Heavy Rain
1:35 PM 39.2 °F 34.2 °F 39.2 °F 100% 30.38 in 5.0 mi NE 6.9 mph - 0.09 in Rain Light Rain
1:55 PM 39.2 °F 35.0 °F 39.2 °F 100% 30.39 in 10.0 mi NNE 5.8 mph - 0.09 in   Overcast
2:15 PM 39.2 °F 32.0 °F 37.4 °F 93% 30.39 in 5.0 mi NNE 11.5 mph 17.3 mph N/A   Overcast
2:35 PM 37.4 °F 30.8 °F 37.4 °F 100% 30.39 in 3.0 mi NE 9.2 mph 16.1 mph N/A Rain Light Rain
2:55 PM 37.4 °F 30.3 °F 37.4 °F 100% 30.40 in 3.0 mi NE 10.4 mph 19.6 mph 0.02 in Rain Light Rain
3:15 PM 37.4 °F 29.8 °F 35.6 °F 93% 30.40 in 3.0 mi NE 11.5 mph 18.4 mph 0.03 in Rain Light Rain
3:35 PM 35.6 °F 28.6 °F 35.6 °F 100% 30.41 in 5.0 mi NE 9.2 mph 16.1 mph 0.03 in Rain Rain
3:55 PM 35.6 °F 28.6 °F 35.6 °F 100% 30.41 in 10.0 mi NE 9.2 mph 18.4 mph 0.04 in   Light Drizzle
4:15 PM 35.6 °F 27.1 °F 35.6 °F 100% 30.43 in 4.0 mi NE 12.7 mph - N/A Rain Rain
4:35 PM 35.6 °F 28.0 °F 35.6 °F 100% 30.42 in 3.0 mi ENE 10.4 mph - 0.07 in Rain Rain
4:55 PM 35.6 °F 28.6 °F 35.6 °F 100% 30.43 in 3.0 mi ENE 9.2 mph - 0.12 in Rain Rain
5:15 PM 35.6 °F 28.0 °F 35.6 °F 100% 30.43 in 5.0 mi ENE 10.4 mph 18.4 mph 0.03 in Rain Light Rain
5:35 PM 35.6 °F 29.2 °F 35.6 °F 100% 30.46 in 5.0 mi NE 8.1 mph - 0.07 in Rain Rain
5:55 PM 35.6 °F 29.2 °F 35.6 °F 100% 30.45 in 7.0 mi NE 8.1 mph 16.1 mph 0.10 in Rain Light Rain
6:15 PM 35.6 °F 28.6 °F 35.6 °F 100% 30.47 in 10.0 mi NNE 9.2 mph - N/A   Drizzle
6:35 PM 33.8 °F 27.0 °F 33.8 °F 100% 30.47 in 10.0 mi NE 8.1 mph 20.7 mph N/A   Overcast
6:55 PM 33.8 °F 24.8 °F 33.8 °F 100% 30.47 in 7.0 mi NE 12.7 mph 17.3 mph N/A Rain Light Rain
7:15 PM 33.8 °F 24.3 °F 33.8 °F 100% 30.48 in 5.0 mi NE 13.8 mph - 0.01 in Rain Rain
7:35 PM 33.8 °F 25.3 °F 33.8 °F 100% 30.47 in 7.0 mi ENE 11.5 mph 17.3 mph 0.03 in Rain Rain
7:55 PM 33.8 °F 26.4 °F 33.8 °F 100% 30.49 in 10.0 mi NE 9.2 mph - 0.03 in   Overcast
8:15 PM 33.8 °F 25.3 °F 32.0 °F 93% 30.49 in 10.0 mi ENE 11.5 mph - 0.01 in Rain Rain
8:35 PM 33.8 °F 23.5 °F 32.0 °F 93% 30.47 in 10.0 mi ENE 16.1 mph 20.7 mph 0.01 in Rain Light Rain
8:55 PM 33.8 °F 23.9 °F 32.0 °F 93% 30.47 in 10.0 mi ENE 15.0 mph - 0.01 in   Light Drizzle
9:15 PM 33.8 °F 25.8 °F 32.0 °F 93% 30.47 in 10.0 mi East 10.4 mph - N/A   Drizzle
9:35 PM 33.8 °F 24.8 °F 32.0 °F 93% 30.46 in 10.0 mi ENE 12.7 mph 16.1 mph N/A   Overcast
9:55 PM 33.8 °F 27.0 °F 32.0 °F 93% 30.46 in 10.0 mi East 8.1 mph - N/A   Overcast
10:15 PM 33.8 °F 25.8 °F 32.0 °F 93% 30.46 in 10.0 mi ENE 10.4 mph - N/A   Overcast
10:35 PM 33.8 °F 25.3 °F 32.0 °F 93% 30.45 in 10.0 mi East 11.5 mph - N/A   Overcast
10:55 PM 33.8 °F 25.8 °F 32.0 °F 93% 30.45 in 10.0 mi East 10.4 mph - N/A   Overcast
11:15 PM 33.8 °F 27.0 °F 32.0 °F 93% 30.44 in 10.0 mi East 8.1 mph - N/A   Overcast
11:35 PM 33.8 °F 27.7 °F 32.0 °F 93% 30.43 in 10.0 mi East 6.9 mph - N/A   Overcast
11:55 PM 33.8 °F 28.6 °F 32.0 °F 93% 30.43 in 10.0 mi East 5.8 mph - N/A   Overcast